Location: Brookview Estates
(36.0476°N, 86.6931°W)
Time: 17:06:35
(UTC+00:00)

OAO 2 Rocket - Pass Details

Date: 30 March 2020
Orbit: 676 x 746 km, 35.0° (Epoch: 01 June)

Event Time Altitude Azimuth Distance (km) Brightness Sun altitude
Rises 00:22:13 0° 277° (W) 3,130 10.0 -4.0°
Reaches altitude 10° 00:24:42 10° 274° (W) 2,197 7.8 -4.4°
Maximum altitude 00:29:46 60° 195° (SSW) 803 3.7 -5.5°
Drops below altitude 10° 00:34:44 10° 115° (ESE) 2,146 5.2 -6.4°
Enters shadow 00:35:23 - 114° (ESE) 2,391 5.4 -6.6°
